Location: Bougoudala
(13.2282°N, 4.9477°W)
Time: 11:34:39
(UTC+00:00)

Cosmos 1371 Rocket - Pass Details

Date: 29 January 2020
Orbit: 753 x 790 km, 74.0° (Epoch: 22 February)

Event Time Altitude Azimuth Distance (km) Brightness Sun altitude
Rises 18:34:13 0° 197° (SSW) 3,194 7.7 -4.3°
Reaches altitude 10° 18:36:35 10° 200° (SSW) 2,269 7.0 -4.9°
Maximum altitude 18:41:42 70° 283° (WNW) 798 4.4 -6.1°
Drops below altitude 10° 18:46:50 10° 7° (N) 2,275 6.2 -7.3°
Sets 18:49:12 0° 10° (N) 3,204 7.0 -7.8°
